| time (UTC) | temp F | wind direction | speed MPH | gust MPH | rain 1hr in | rain 24hr in | rain mn in | humidity % | barometer mb |
| 20260906124509 | 63 | 292 | 8.0 | 17.0 | 0.00 | 0.02 | 0.02 | 68 | 1016.0 |
| 20260906123014 | 63 | 284 | 10.0 | 15.0 | 0.00 | 0.02 | 0.02 | 66 | 1015.9 |
| 20260906121612 | 63 | 258 | 9.0 | 17.0 | 0.00 | 0.02 | 0.02 | 64 | 1016.1 |
| 20260906120013 | 63 | 269 | 6.0 | 14.0 | 0.00 | 0.02 | 0.02 | 67 | 1015.7 |
| 20260906114611 | 63 | 269 | 7.0 | 13.0 | 0.00 | 0.02 | 0.02 | 70 | 1015.7 |
| 20260906111608 | 62 | 275 | 6.0 | 12.0 | 0.00 | 0.02 | 0.02 | 77 | 1015.4 |
| 20260906110017 | 62 | 278 | 7.0 | 12.0 | 0.00 | 0.02 | 0.02 | 77 | 1015.5 |
| 20260906104609 | 62 | 225 | 5.0 | 13.0 | 0.00 | 0.02 | 0.02 | 82 | 1015.3 |
| 20260906103012 | 61 | 238 | 5.0 | 10.0 | 0.00 | 0.02 | 0.02 | 86 | 1015.1 |
| 20260906101512 | 60 | 259 | 5.0 | 10.0 | 0.00 | 0.02 | 0.02 | 89 | 1015.1 |
| 20260906100013 | 59 | 244 | 5.0 | 11.0 | 0.00 | 0.02 | 0.02 | 95 | 1015.0 |
| 20260906094518 | 58 | 252 | 6.0 | 11.0 | 0.00 | 0.02 | 0.02 | 97 | 1015.1 |
| 20260906093012 | 57 | 252 | 8.0 | 11.0 | 0.00 | 0.02 | 0.02 | 99 | 1014.9 |
| 20260906091523 | 56 | 244 | 6.0 | 11.0 | 0.00 | 0.02 | 0.02 | 100 | 1014.9 |
| 20260906090014 | 56 | 232 | 5.0 | 10.0 | 0.00 | 0.02 | 0.02 | 100 | 1014.8 |
| 20260906084608 | 56 | 229 | 6.0 | 10.0 | 0.00 | 0.02 | 0.02 | 100 | 1014.7 |
| 20260906083016 | 55 | 232 | 6.0 | 8.0 | 0.00 | 0.02 | 0.02 | 100 | 1014.7 |
| 20260906081528 | 54 | 225 | 4.0 | 7.0 | 0.00 | 0.02 | 0.02 | 100 | 1014.6 |
| 20260906080008 | 53 | 246 | 5.0 | 10.0 | 0.00 | 0.02 | 0.02 | 100 | 1014.4 |
| 20260906074608 | 53 | 244 | 5.0 | 10.0 | 0.00 | 0.02 | 0.02 | 99 | 1014.2 |
| 20260906073114 | 53 | 246 | 5.0 | 7.0 | 0.00 | 0.02 | 0.02 | 99 | 1014.1 |
| 20260906071508 | 52 | 253 | 5.0 | 8.0 | 0.00 | 0.02 | 0.02 | 100 | 1014.0 |
| 20260906070010 | 52 | 246 | 4.0 | 7.0 | 0.00 | 0.02 | 0.02 | 99 | 1014.0 |
| 20260906064608 | 52 | 227 | 3.0 | 5.0 | 0.00 | 0.03 | 0.02 | 99 | 1013.7 |
| 20260906063108 | 51 | 211 | 4.0 | 6.0 | 0.00 | 0.03 | 0.02 | 99 | 1013.5 |
| 20260906061510 | 50 | 198 | 2.0 | 5.0 | 0.00 | 0.03 | 0.02 | 99 | 1013.3 |
| 20260906060009 | 50 | 171 | 1.0 | 4.0 | 0.00 | 0.03 | 0.02 | 99 | 1013.1 |
| 20260906054608 | 49 | 183 | 2.0 | 5.0 | 0.00 | 0.06 | 0.02 | 99 | 1012.9 |
| 20260906053013 | 49 | 184 | 2.0 | 4.0 | 0.00 | 0.06 | 0.02 | 99 | 1012.8 |
| 20260906051509 | 48 | 176 | 1.0 | 6.0 | 0.00 | 0.06 | 0.02 | 99 | 1012.8 |
| 20260906050033 | 47 | 148 | 2.0 | 5.0 | 0.00 | 0.06 | 0.02 | 99 | 1012.6 |
| 20260906044509 | 46 | 161 | 3.0 | 4.0 | 0.00 | 0.06 | 0.02 | 99 | 1012.3 |
| 20260906043011 | 46 | 116 | 1.0 | 3.0 | 0.01 | 0.06 | 0.02 | 99 | 1012.0 |
| 20260906041510 | 45 | 130 | 1.0 | 3.0 | 0.01 | 0.06 | 0.02 | 98 | 1011.9 |
| 20260906040011 | 46 | 138 | 1.0 | 3.0 | 0.01 | 0.06 | 0.02 | 98 | 1011.7 |
| 20260906034510 | 46 | 101 | 0.0 | 2.0 | 0.01 | 0.06 | 0.02 | 98 | 1011.5 |
| 20260906033013 | 47 | 152 | 0.0 | 1.0 | 0.00 | 0.06 | 0.01 | 98 | 1011.4 |
| 20260906031514 | 47 | 98 | 1.0 | 3.0 | 0.00 | 0.06 | 0.01 | 99 | 1011.2 |
| 20260906030011 | 46 | 103 | 0.0 | 0.0 | 0.00 | 0.06 | 0.01 | 98 | 1011.1 |
| 20260906024510 | 46 | 103 | 0.0 | 2.0 | 0.00 | 0.06 | 0.01 | 98 | 1010.9 |
| 20260906023011 | 46 | 96 | 0.0 | 3.0 | 0.00 | 0.06 | 0.01 | 98 | 1010.8 |
| 20260906021511 | 46 | 103 | 2.0 | 3.0 | 0.00 | 0.06 | 0.01 | 98 | 1010.6 |
| 20260906020013 | 46 | 111 | 1.0 | 3.0 | 0.00 | 0.06 | 0.01 | 98 | 1010.6 |
| 20260906014510 | 46 | 131 | 0.0 | 2.0 | 0.00 | 0.13 | 0.01 | 98 | 1010.4 |
| 20260906013011 | 46 | 130 | 0.0 | 3.0 | 0.00 | 0.13 | 0.01 | 98 | 1010.3 |
| 20260906011510 | 47 | 137 | 1.0 | 3.0 | 0.00 | 0.13 | 0.01 | 98 | 1010.2 |
| 20260906010012 | 46 | 134 | 1.0 | 3.0 | 0.00 | 0.13 | 0.01 | 98 | 1009.9 |
| 20260906004511 | 46 | 88 | 1.0 | 3.0 | 0.00 | 0.13 | 0.01 | 97 | 1009.7 |
| 20260906001507 | 48 | 155 | 1.0 | 3.0 | 0.00 | 0.13 | 0.01 | 98 | 1009.2 |
| 20260906000014 | 48 | 138 | 2.0 | 3.0 | 0.00 | 0.13 | 0.01 | 98 | 1009.0 |
| 20260905234508 | 47 | 136 | 2.0 | 3.0 | 0.00 | 0.13 | 0.01 | 97 | 1008.8 |
| 20260905233022 | 48 | 140 | 1.0 | 3.0 | 0.00 | 0.13 | 0.01 | 97 | 1008.7 |
| 20260905231508 | 49 | 121 | 0.0 | 3.0 | 0.00 | 0.13 | 0.01 | 97 | 1008.5 |
| 20260905230110 | 49 | 135 | 1.0 | 3.0 | 0.01 | 0.13 | 0.01 | 97 | 1008.3 |
| 20260905224611 | 49 | 111 | 1.0 | 3.0 | 0.01 | 0.13 | 0.01 | 97 | 1008.2 |
| 20260905223009 | 49 | 116 | 0.0 | 0.0 | 0.01 | 0.13 | 0.01 | 97 | 1007.9 |
| 20260905221512 | 50 | 136 | 0.0 | 0.0 | 0.01 | 0.13 | 0.01 | 97 | 1007.7 |
| 20260905220009 | 50 | 110 | 0.0 | 0.0 | 0.00 | 0.13 | 0.00 | 97 | 1007.5 |
| 20260905214510 | 50 | 126 | 0.0 | 0.0 | 0.00 | 0.13 | 0.13 | 96 | 1007.3 |
| 20260905213011 | 50 | 143 | 0.0 | 0.0 | 0.00 | 0.13 | 0.13 | 96 | 1007.0 |
| 20260905211510 | 51 | 140 | 0.0 | 0.0 | 0.00 | 0.13 | 0.13 | 96 | 1006.8 |
| 20260905210109 | 51 | 138 | 0.0 | 0.0 | 0.00 | 0.13 | 0.13 | 96 | 1006.5 |
| 20260905204609 | 51 | 138 | 0.0 | 0.0 | 0.00 | 0.13 | 0.13 | 96 | 1006.0 |
| 20260905203011 | 51 | 84 | 0.0 | 0.0 | 0.00 | 0.13 | 0.13 | 95 | 1005.8 |
| 20260905201608 | 51 | 84 | 0.0 | 2.0 | 0.00 | 0.13 | 0.13 | 95 | 1005.6 |
| 20260905200014 | 52 | 103 | 0.0 | 0.0 | 0.00 | 0.13 | 0.13 | 95 | 1005.4 |
| 20260905194607 | 52 | 60 | 0.0 | 0.0 | 0.00 | 0.13 | 0.13 | 94 | 1005.1 |
| 20260905193022 | 52 | 95 | 0.0 | 0.0 | 0.00 | 0.13 | 0.13 | 93 | 1004.9 |
| 20260905191509 | 52 | 161 | 2.0 | 3.0 | 0.00 | 0.13 | 0.13 | 92 | 1004.6 |
| 20260905190015 | 53 | 305 | 0.0 | 0.0 | 0.00 | 0.13 | 0.13 | 91 | 1004.6 |
| 20260905184618 | 54 | 305 | 0.0 | 0.0 | 0.00 | 0.13 | 0.13 | 90 | 1004.3 |
| 20260905183017 | 55 | 305 | 0.0 | 0.0 | 0.00 | 0.13 | 0.13 | 89 | 1004.1 |
| 20260905181513 | 56 | 305 | 0.0 | 0.0 | 0.00 | 0.13 | 0.13 | 88 | 1004.0 |
| 20260905180013 | 56 | 305 | 0.0 | 0.0 | 0.00 | 0.13 | 0.13 | 88 | 1003.8 |
| 20260905174624 | 56 | 305 | 0.0 | 0.0 | 0.00 | 0.13 | 0.13 | 87 | 1003.5 |
| 20260905173011 | 57 | 311 | 1.0 | 3.0 | 0.00 | 0.13 | 0.13 | 87 | 1003.2 |
| 20260905171507 | 57 | 303 | 2.0 | 6.0 | 0.00 | 0.13 | 0.13 | 85 | 1003.0 |
| 20260905170010 | 58 | 284 | 4.0 | 7.0 | 0.00 | 0.13 | 0.13 | 82 | 1002.7 |
| 20260905164510 | 59 | 291 | 5.0 | 8.0 | 0.00 | 0.13 | 0.13 | 81 | 1002.5 |
| 20260905163010 | 59 | 305 | 4.0 | 6.0 | 0.00 | 0.13 | 0.13 | 78 | 1002.3 |
| 20260905161509 | 60 | 256 | 3.0 | 8.0 | 0.00 | 0.13 | 0.13 | 80 | 1002.1 |
| 20260905160022 | 59 | 265 | 4.0 | 6.0 | 0.00 | 0.13 | 0.13 | 80 | 1002.1 |
| 20260905154509 | 60 | 236 | 6.0 | 9.0 | 0.00 | 0.13 | 0.13 | 79 | 1001.9 |
| 20260905153012 | 60 | 254 | 6.0 | 10.0 | 0.00 | 0.13 | 0.13 | 78 | 1001.6 |
| 20260905151607 | 60 | 236 | 6.0 | 9.0 | 0.00 | 0.13 | 0.13 | 79 | 1001.5 |
| 20260905150020 | 61 | 232 | 7.0 | 11.0 | 0.00 | 0.13 | 0.13 | 80 | 1001.3 |
| 20260905144615 | 60 | 280 | 6.0 | 9.0 | 0.00 | 0.13 | 0.13 | 81 | 1001.3 |
| 20260905143018 | 59 | 289 | 5.0 | 7.0 | 0.00 | 0.13 | 0.13 | 83 | 1001.2 |
| 20260905141509 | 59 | 275 | 4.0 | 8.0 | 0.00 | 0.13 | 0.13 | 83 | 1001.0 |
| 20260905140012 | 59 | 254 | 5.0 | 9.0 | 0.00 | 0.13 | 0.13 | 83 | 1000.9 |
| 20260905134615 | 60 | 239 | 5.0 | 9.0 | 0.00 | 0.13 | 0.13 | 85 | 1001.0 |
| 20260905133012 | 60 | 213 | 5.0 | 7.0 | 0.00 | 0.13 | 0.13 | 86 | 1000.9 |
| 20260905131508 | 59 | 232 | 7.0 | 10.0 | 0.00 | 0.13 | 0.13 | 85 | 1000.8 |
| 20260905130009 | 58 | 230 | 5.0 | 8.0 | 0.00 | 0.13 | 0.13 | 86 | 1000.7 |